Location: Celina Division
(33.3022°N, 96.7580°W)
Time: 13:35:28
(UTC+00:00)

SL-27 R/B - Pass Details

Date: 08 December 2021
Orbit: 416 x 464 km, 74.7° (Epoch: 22 January)

Event Time Altitude Azimuth Distance (km) Brightness Sun altitude
Exits shadow 12:28:10 12° 321° (NW) 1,504 4.5 -10.5°
Maximum altitude 12:31:05 32° 259° (W) 799 3.2 -9.9°
Drops below altitude 10° 12:34:12 10° 194° (SSW) 1,571 5.2 -9.3°
Sets 12:36:23 0° 184° (S) 2,428 6.4 -8.9°
